• In Slovakia
  • List of Countries
  • For 7 days
  • Water Temperature
  • Satellite Maps
  • Weather Map
  • Weather Widgets
  • user-avatar
    Login

    Hourly Weather Sierre

    Today, 19 September, Wednesday

    Time Temperature Precipitation Wind Pressure Humidity
    00:00 +14°C° 0 mm 1 mps 682 mmHg 84%
    01:00 +14°C° 0 mm 1 mps 682 mmHg 84%
    02:00 +14°C° 0 mm 1 mps 682 mmHg 83%
    03:00 +14°C° 0 mm 1 mps 682 mmHg 82%
    04:00 +14°C° 0 mm 1 mps 682 mmHg 81%
    05:00 +14°C° 0 mm 1 mps 682 mmHg 79%
    06:00 +14°C° 0 mm 1 mps 682 mmHg 77%
    07:00 +14°C° 0 mm 1 mps 682 mmHg 76%
    08:00 +18°C° 0 mm 1 mps 683 mmHg 67%
    09:00 +20°C° 0 mm 1 mps 683 mmHg 59%
    10:00 +23°C° 0 mm 1 mps 684 mmHg 50%
    11:00 +23°C° 0 mm 1 mps 684 mmHg 49%
    12:00 +24°C° 0 mm 1 mps 684 mmHg 48%
    13:00 +25°C° 0 mm 1 mps 684 mmHg 47%
    14:00 +25°C° 0 mm 1 mps 684 mmHg 49%
    15:00 +24°C° 0 mm 1 mps 683 mmHg 52%
    16:00 +24°C° 0 mm 2 mps 683 mmHg 55%
    17:00 +22°C° 0.2 mm 1 mps 683 mmHg 65%
    18:00 +20°C° 0.2 mm 1 mps 683 mmHg 76%
    19:00 +16°C° 0.2 mm 1 mps 682 mmHg 86%
    20:00 +16°C° 0 mm 1 mps 683 mmHg 86%
    21:00 +15°C° 0 mm 1 mps 683 mmHg 87%
    22:00 +15°C° 0 mm 1 mps 683 mmHg 87%
    23:00 +15°C° 0 mm 1 mps 683 mmHg 86%

    Tomorrow, 20 September, Thursday

    Time Temperature Precipitation Wind Pressure Humidity
    00:00 +15°C° 0 mm 1 mps 683 mmHg 86%
    01:00 +14°C° 0 mm 1 mps 683 mmHg 85%
    02:00 +14°C° 0 mm 1 mps 683 mmHg 84%
    03:00 +14°C° 0 mm 1 mps 682 mmHg 83%
    04:00 +14°C° 0 mm 1 mps 682 mmHg 83%
    05:00 +14°C° 0 mm 1 mps 682 mmHg 82%
    06:00 +14°C° 0 mm 1 mps 682 mmHg 81%
    07:00 +15°C° 0 mm 1 mps 683 mmHg 80%
    08:00 +18°C° 0 mm 1 mps 683 mmHg 71%
    09:00 +21°C° 0 mm 1 mps 684 mmHg 62%
    10:00 +21°C° 0 mm 0 mps 684 mmHg 53%
    11:00 +24°C° 0 mm 1 mps 684 mmHg 52%
    12:00 +25°C° 0 mm 1 mps 684 mmHg 51%
    13:00 +25°C° 0 mm 1 mps 684 mmHg 49%
    14:00 +25°C° 0 mm 1 mps 683 mmHg 52%
    15:00 +25°C° 0 mm 1 mps 683 mmHg 55%
    16:00 +24°C° 0 mm 1 mps 682 mmHg 58%
    17:00 +22°C° 0 mm 1 mps 682 mmHg 68%
    18:00 +20°C° 0 mm 1 mps 681 mmHg 77%
    19:00 +18°C° 0 mm 1 mps 681 mmHg 87%
    20:00 +18°C° 0 mm 1 mps 681 mmHg 87%
    21:00 +16°C° 0 mm 1 mps 681 mmHg 87%
    22:00 +16°C° 0 mm 2 mps 682 mmHg 87%
    23:00 +16°C° 0 mm 2 mps 681 mmHg 87%

    Day after tomorrow, 21 September, Friday

    Time Temperature Precipitation Wind Pressure Humidity
    00:00 +16°C° 0 mm 2 mps 681 mmHg 87%
    01:00 +16°C° 0 mm 2 mps 681 mmHg 87%
    02:00 +15°C° 0 mm 2 mps 681 mmHg 87%
    03:00 +15°C° 0 mm 2 mps 681 mmHg 87%
    04:00 +15°C° 0 mm 2 mps 680 mmHg 87%
    05:00 +15°C° 0 mm 2 mps 680 mmHg 86%
    06:00 +15°C° 0 mm 2 mps 681 mmHg 86%
    07:00 +15°C° 0 mm 2 mps 681 mmHg 85%
    08:00 +18°C° 0 mm 2 mps 681 mmHg 76%
    09:00 +20°C° 0 mm 2 mps 681 mmHg 67%
    10:00 +23°C° 0 mm 2 mps 682 mmHg 59%
    11:00 +24°C° 0 mm 2 mps 682 mmHg 55%
    12:00 +25°C° 0 mm 2 mps 681 mmHg 52%
    13:00 +26°C° 0 mm 2 mps 681 mmHg 49%
    14:00 +25°C° 0 mm 2 mps 681 mmHg 50%
    15:00 +25°C° 0 mm 2 mps 680 mmHg 52%
    16:00 +25°C° 0 mm 2 mps 680 mmHg 53%
    17:00 +23°C° 0 mm 2 mps 680 mmHg 60%
    18:00 +20°C° 0 mm 2 mps 680 mmHg 68%
    19:00 +18°C° 0 mm 1 mps 679 mmHg 75%
    20:00 +18°C° 0 mm 1 mps 680 mmHg 74%
    21:00 +18°C° 0 mm 1 mps 681 mmHg 73%
    22:00 +18°C° 0 mm 1 mps 681 mmHg 71%
    23:00 +16°C° 0 mm 1 mps 681 mmHg 74%

    22 September, Saturday

    Time Temperature Precipitation Wind Pressure Humidity
    00:00 +16°C° 0 mm 1 mps 681 mmHg 76%
    01:00 +16°C° 0 mm 1 mps 681 mmHg 79%
    02:00 +16°C° 0.1 mm 1 mps 681 mmHg 81%
    03:00 +16°C° 0.1 mm 1 mps 681 mmHg 84%
    04:00 +16°C° 0.1 mm 1 mps 682 mmHg 86%
    05:00 +16°C° 0.5 mm 1 mps 682 mmHg 89%
    06:00 +15°C° 0.5 mm 2 mps 682 mmHg 91%
    07:00 +15°C° 0.5 mm 2 mps 682 mmHg 93%
    08:00 +16°C° 0.3 mm 2 mps 683 mmHg 92%
    09:00 +16°C° 0.3 mm 2 mps 683 mmHg 90%
    10:00 +17°C° 0.3 mm 2 mps 683 mmHg 88%
    11:00 +17°C° 0.1 mm 2 mps 683 mmHg 87%
    12:00 +17°C° 0.1 mm 2 mps 683 mmHg 86%
    13:00 +17°C° 0.1 mm 2 mps 683 mmHg 84%
    14:00 +17°C° 0.1 mm 2 mps 683 mmHg 84%
    15:00 +17°C° 0.1 mm 2 mps 683 mmHg 83%
    16:00 +17°C° 0.1 mm 2 mps 683 mmHg 83%
    17:00 +16°C° 0 mm 2 mps 683 mmHg 86%
    18:00 +15°C° 0 mm 2 mps 683 mmHg 89%
    19:00 +14°C° 0 mm 2 mps 683 mmHg 92%
    20:00 +13°C° 0 mm 1 mps 683 mmHg 92%
    21:00 +13°C° 0 mm 1 mps 683 mmHg 93%
    22:00 +12°C° 0 mm 1 mps 683 mmHg 93%
    23:00 +12°C° 0 mm 1 mps 682 mmHg 90%

    23 September, Sunday

    Time Temperature Precipitation Wind Pressure Humidity
    00:00 +12°C° 0 mm 1 mps 682 mmHg 87%
    01:00 +12°C° 0 mm 1 mps 681 mmHg 84%
    02:00 +12°C° 0 mm 2 mps 681 mmHg 79%
    03:00 +12°C° 0 mm 2 mps 681 mmHg 75%
    04:00 +12°C° 0 mm 2 mps 681 mmHg 70%
    05:00 +12°C° 0 mm 2 mps 681 mmHg 70%
    06:00 +13°C° 0 mm 2 mps 680 mmHg 70%
    07:00 +13°C° 0 mm 2 mps 680 mmHg 70%
    08:00 +16°C° 0 mm 2 mps 680 mmHg 65%
    09:00 +18°C° 0 mm 3 mps 680 mmHg 60%
    10:00 +21°C° 0 mm 3 mps 681 mmHg 54%
    11:00 +22°C° 0 mm 3 mps 680 mmHg 54%
    12:00 +24°C° 0 mm 3 mps 680 mmHg 53%
    13:00 +25°C° 0 mm 4 mps 680 mmHg 52%
    14:00 +23°C° 0 mm 4 mps 679 mmHg 55%
    15:00 +23°C° 0 mm 4 mps 678 mmHg 58%
    16:00 +23°C° 0 mm 4 mps 677 mmHg 60%
    17:00 +21°C° 0.2 mm 4 mps 677 mmHg 68%
    18:00 +19°C° 0.2 mm 4 mps 677 mmHg 76%
    19:00 +18°C° 0.2 mm 4 mps 676 mmHg 84%
    20:00 +17°C° 3.5 mm 4 mps 676 mmHg 88%
    21:00 +15°C° 3.5 mm 4 mps 676 mmHg 93%
    22:00 +14°C° 3.5 mm 4 mps 677 mmHg 98%
    23:00 +13°C° 1.6 mm 4 mps 676 mmHg 97%

    24 September, Monday

    Time Temperature Precipitation Wind Pressure Humidity
    00:00 +12°C° 1.6 mm 4 mps 676 mmHg 96%
    01:00 +11°C° 1.6 mm 4 mps 676 mmHg 95%
    02:00 +10°C° 0.3 mm 4 mps 675 mmHg 94%
    03:00 +8°C° 0.3 mm 4 mps 675 mmHg 92%
    04:00 +7°C° 0.3 mm 4 mps 675 mmHg 91%
    05:00 +7°C° 0.5 mm 4 mps 675 mmHg 91%
    06:00 +7°C° 0.5 mm 5 mps 676 mmHg 91%
    07:00 +6°C° 0.5 mm 5 mps 676 mmHg 92%
    08:00 +7°C° 0.9 mm 4 mps 676 mmHg 90%
    09:00 +7°C° 0.9 mm 4 mps 677 mmHg 89%
    10:00 +7°C° 0.9 mm 4 mps 677 mmHg 88%
    11:00 +8°C° 1.1 mm 4 mps 678 mmHg 87%
    12:00 +8°C° 1.1 mm 4 mps 678 mmHg 87%
    13:00 +8°C° 1.1 mm 4 mps 679 mmHg 87%
    14:00 +8°C° 1.1 mm 4 mps 679 mmHg 87%
    15:00 +8°C° 1.1 mm 4 mps 679 mmHg 87%
    16:00 +8°C° 1.1 mm 4 mps 680 mmHg 88%
    17:00 +7°C° 0.7 mm 4 mps 680 mmHg 89%
    18:00 +7°C° 0.7 mm 4 mps 681 mmHg 90%
    19:00 +7°C° 0.7 mm 3 mps 681 mmHg 91%
    20:00 +7°C° 0.3 mm 3 mps 682 mmHg 91%
    21:00 +5°C° 0.3 mm 3 mps 682 mmHg 91%
    22:00 +5°C° 0.3 mm 3 mps 683 mmHg 92%
    23:00 +5°C° 0.1 mm 3 mps 683 mmHg 92%
    Show more